When you browse on this site, cookies collect data to enhance your experience and personalize the content and advertising you see.
Visit our Privacy Policy to learn more. By continuing to use the site, you agree to this use of cookies and data.
  • în România
  • Lista ţărilor
  • Pe 7 zile
  • Temperatura apei
  • Meteo pe hartă
  • Widget-uri
  • user-avatar
    Intrare

    Meteo pe oră la Maripasoula

    Astăzi, 25 August, Duminică

    Timp Temperatura Precipitaţii Vânt Presiune Umiditate
    00:00 +21°C° 0 mm 0 m/s 748 mmHg 97%
    01:00 +21°C° 0 mm 0 m/s 748 mmHg 97%
    02:00 +21°C° 0 mm 0 m/s 748 mmHg 98%
    03:00 +21°C° 0.1 mm 0 m/s 748 mmHg 99%
    04:00 +21°C° 0.1 mm 0 m/s 748 mmHg 99%
    05:00 +21°C° 0.1 mm 0 m/s 748 mmHg 99%
    06:00 +23°C° 0.1 mm 0 m/s 748 mmHg 91%
    07:00 +26°C° 0.1 mm 1 m/s 749 mmHg 83%
    08:00 +28°C° 0.1 mm 1 m/s 749 mmHg 74%
    09:00 +30°C° 0.1 mm 1 m/s 749 mmHg 68%
    10:00 +32°C° 0.1 mm 1 m/s 749 mmHg 61%
    11:00 +34°C° 0.1 mm 2 m/s 748 mmHg 54%
    12:00 +35°C° 0.3 mm 2 m/s 748 mmHg 52%
    13:00 +34°C° 0.3 mm 1 m/s 747 mmHg 49%
    14:00 +35°C° 0.3 mm 1 m/s 746 mmHg 46%
    15:00 +34°C° 0 mm 1 m/s 746 mmHg 51%
    16:00 +33°C° 0 mm 1 m/s 746 mmHg 55%
    17:00 +30°C° 0 mm 0 m/s 746 mmHg 60%
    18:00 +28°C° 0 mm 0 m/s 746 mmHg 65%
    19:00 +26°C° 0 mm 0 m/s 746 mmHg 70%
    20:00 +25°C° 0 mm 0 m/s 747 mmHg 75%
    21:00 +24°C° 0 mm 0 m/s 747 mmHg 80%
    22:00 +25°C° 0 mm 1 m/s 747 mmHg 85%
    23:00 +25°C° 0 mm 1 m/s 748 mmHg 90%

    Mâine, 26 August, Luni

    Timp Temperatura Precipitaţii Vânt Presiune Umiditate
    00:00 +24°C° 0 mm 1 m/s 747 mmHg 92%
    01:00 +22°C° 0 mm 0 m/s 747 mmHg 95%
    02:00 +21°C° 0 mm 0 m/s 747 mmHg 97%
    03:00 +21°C° 0 mm 0 m/s 747 mmHg 98%
    04:00 +21°C° 0 mm 0 m/s 747 mmHg 98%
    05:00 +21°C° 0 mm 0 m/s 747 mmHg 98%
    06:00 +24°C° 0 mm 1 m/s 747 mmHg 93%
    07:00 +25°C° 0 mm 1 m/s 748 mmHg 87%
    08:00 +27°C° 0 mm 2 m/s 748 mmHg 81%
    09:00 +29°C° 0 mm 2 m/s 748 mmHg 68%
    10:00 +32°C° 0 mm 2 m/s 748 mmHg 56%
    11:00 +36°C° 0 mm 2 m/s 748 mmHg 43%
    12:00 +36°C° 0 mm 2 m/s 747 mmHg 39%
    13:00 +37°C° 0 mm 2 m/s 746 mmHg 36%
    14:00 +38°C° 0 mm 2 m/s 745 mmHg 32%
    15:00 +37°C° 0 mm 2 m/s 745 mmHg 38%
    16:00 +34°C° 0 mm 1 m/s 745 mmHg 44%
    17:00 +33°C° 0 mm 1 m/s 744 mmHg 49%
    18:00 +31°C° 0 mm 1 m/s 745 mmHg 53%
    19:00 +30°C° 0 mm 1 m/s 746 mmHg 57%
    20:00 +28°C° 0 mm 1 m/s 746 mmHg 61%
    21:00 +27°C° 0 mm 1 m/s 747 mmHg 67%
    22:00 +26°C° 0 mm 1 m/s 747 mmHg 73%
    23:00 +25°C° 0 mm 1 m/s 747 mmHg 79%

    Poimâine, 27 August, Marţi

    Timp Temperatura Precipitaţii Vânt Presiune Umiditate
    00:00 +25°C° 0 mm 1 m/s 747 mmHg 83%
    01:00 +24°C° 0 mm 1 m/s 747 mmHg 88%
    02:00 +24°C° 0 mm 1 m/s 747 mmHg 92%
    03:00 +23°C° 0 mm 1 m/s 747 mmHg 94%
    04:00 +23°C° 0 mm 1 m/s 747 mmHg 96%
    05:00 +23°C° 0 mm 1 m/s 747 mmHg 98%
    06:00 +25°C° 0 mm 1 m/s 747 mmHg 89%
    07:00 +27°C° 0 mm 2 m/s 748 mmHg 79%
    08:00 +29°C° 0 mm 2 m/s 748 mmHg 70%
    09:00 +31°C° 0 mm 2 m/s 748 mmHg 60%
    10:00 +34°C° 0 mm 2 m/s 748 mmHg 50%
    11:00 +36°C° 0 mm 2 m/s 748 mmHg 40%
    12:00 +37°C° 0 mm 2 m/s 747 mmHg 37%
    13:00 +38°C° 0 mm 2 m/s 746 mmHg 33%
    14:00 +38°C° 0 mm 2 m/s 745 mmHg 29%
    15:00 +36°C° 0 mm 1 m/s 745 mmHg 35%
    16:00 +34°C° 0 mm 1 m/s 745 mmHg 41%
    17:00 +33°C° 0 mm 1 m/s 745 mmHg 48%
    18:00 +31°C° 0 mm 1 m/s 745 mmHg 52%
    19:00 +29°C° 0 mm 1 m/s 746 mmHg 56%
    20:00 +28°C° 0 mm 1 m/s 747 mmHg 60%
    21:00 +27°C° 0 mm 1 m/s 747 mmHg 66%
    22:00 +26°C° 0 mm 1 m/s 747 mmHg 72%
    23:00 +26°C° 0 mm 2 m/s 748 mmHg 78%

    28 August, Miercuri

    Timp Temperatura Precipitaţii Vânt Presiune Umiditate
    00:00 +25°C° 0 mm 2 m/s 747 mmHg 82%
    01:00 +25°C° 0 mm 1 m/s 747 mmHg 86%
    02:00 +24°C° 0 mm 1 m/s 747 mmHg 90%
    03:00 +24°C° 0 mm 1 m/s 747 mmHg 93%
    04:00 +23°C° 0 mm 1 m/s 747 mmHg 95%
    05:00 +21°C° 0 mm 0 m/s 747 mmHg 98%
    06:00 +25°C° 0 mm 1 m/s 748 mmHg 89%
    07:00 +27°C° 0 mm 1 m/s 748 mmHg 79%
    08:00 +29°C° 0 mm 2 m/s 749 mmHg 70%
    09:00 +31°C° 0 mm 2 m/s 749 mmHg 59%
    10:00 +34°C° 0 mm 2 m/s 748 mmHg 49%
    11:00 +37°C° 0 mm 2 m/s 748 mmHg 39%
    12:00 +36°C° 0 mm 1 m/s 747 mmHg 35%
    13:00 +37°C° 0 mm 1 m/s 746 mmHg 31%
    14:00 +39°C° 0 mm 1 m/s 745 mmHg 27%
    15:00 +36°C° 0 mm 1 m/s 745 mmHg 33%
    16:00 +35°C° 0 mm 1 m/s 745 mmHg 39%
    17:00 +33°C° 0 mm 1 m/s 745 mmHg 46%
    18:00 +31°C° 0 mm 1 m/s 745 mmHg 50%
    19:00 +29°C° 0 mm 1 m/s 745 mmHg 54%
    20:00 +27°C° 0 mm 1 m/s 746 mmHg 58%
    21:00 +27°C° 0 mm 1 m/s 746 mmHg 65%
    22:00 +26°C° 0 mm 1 m/s 746 mmHg 72%
    23:00 +26°C° 0 mm 1 m/s 747 mmHg 79%

    29 August, Joi

    Timp Temperatura Precipitaţii Vânt Presiune Umiditate
    00:00 +25°C° 0 mm 1 m/s 747 mmHg 84%
    01:00 +24°C° 0 mm 1 m/s 746 mmHg 88%
    02:00 +24°C° 0 mm 1 m/s 746 mmHg 92%
    03:00 +24°C° 0 mm 1 m/s 746 mmHg 94%
    04:00 +21°C° 0 mm 0 m/s 746 mmHg 96%
    05:00 +21°C° 0 mm 0 m/s 746 mmHg 98%
    06:00 +23°C° 0 mm 0 m/s 747 mmHg 91%
    07:00 +26°C° 0 mm 1 m/s 748 mmHg 83%
    08:00 +28°C° 0 mm 1 m/s 748 mmHg 76%
    09:00 +30°C° 0 mm 1 m/s 748 mmHg 67%
    10:00 +33°C° 0 mm 1 m/s 748 mmHg 57%
    11:00 +35°C° 0 mm 1 m/s 747 mmHg 48%
    12:00 +36°C° 0 mm 1 m/s 747 mmHg 44%
    13:00 +36°C° 0 mm 1 m/s 746 mmHg 41%
    14:00 +37°C° 0 mm 1 m/s 745 mmHg 37%
    15:00 +35°C° 0 mm 1 m/s 745 mmHg 44%
    16:00 +33°C° 0 mm 1 m/s 744 mmHg 52%
    17:00 +30°C° 0 mm 0 m/s 744 mmHg 59%
    18:00 +30°C° 0 mm 1 m/s 745 mmHg 66%
    19:00 +28°C° 0 mm 1 m/s 745 mmHg 72%
    20:00 +27°C° 0 mm 1 m/s 746 mmHg 78%
    21:00 +26°C° 0 mm 1 m/s 746 mmHg 82%
    22:00 +25°C° 0 mm 1 m/s 746 mmHg 87%
    23:00 +25°C° 0 mm 1 m/s 747 mmHg 92%

    30 August, Vineri

    Timp Temperatura Precipitaţii Vânt Presiune Umiditate
    00:00 +24°C° 0.3 mm 1 m/s 746 mmHg 94%
    01:00 +24°C° 0.3 mm 1 m/s 746 mmHg 96%
    02:00 +23°C° 0.3 mm 1 m/s 746 mmHg 98%
    03:00 +21°C° 0 mm 0 m/s 746 mmHg 98%
    04:00 +21°C° 0 mm 0 m/s 746 mmHg 99%
    05:00 +21°C° 0 mm 0 m/s 746 mmHg 99%
    06:00 +22°C° 0 mm 0 m/s 747 mmHg 93%
    07:00 +26°C° 0 mm 1 m/s 747 mmHg 88%
    08:00 +27°C° 0 mm 1 m/s 748 mmHg 82%
    09:00 +30°C° 0 mm 1 m/s 748 mmHg 70%
    10:00 +33°C° 0 mm 1 m/s 747 mmHg 58%
    11:00 +36°C° 0 mm 2 m/s 747 mmHg 46%
    12:00 +36°C° 0 mm 1 m/s 746 mmHg 42%
    13:00 +37°C° 0 mm 1 m/s 745 mmHg 39%
    14:00 +37°C° 0 mm 1 m/s 744 mmHg 35%
    15:00 +35°C° 0 mm 1 m/s 744 mmHg 43%
    16:00 +33°C° 0 mm 1 m/s 744 mmHg 50%
    17:00 +31°C° 0 mm 1 m/s 744 mmHg 58%
    18:00 +28°C° 0.2 mm 0 m/s 744 mmHg 65%
    19:00 +26°C° 0.2 mm 0 m/s 745 mmHg 72%
    20:00 +24°C° 0.2 mm 0 m/s 746 mmHg 79%
    21:00 +26°C° 0.2 mm 1 m/s 746 mmHg 83%
    22:00 +25°C° 0.2 mm 1 m/s 746 mmHg 87%
    23:00 +24°C° 0.2 mm 1 m/s 747 mmHg 90%
    Arată mai mult